[[{"header":{"parameterUnit":"m.s-1","parameterCategory":1,"la1":30.2991,"la2":30.254,"lo1":-89.0895,"lo2":-89.0444,"dy":0.0017,"dx":0.0017,"nx":28,"ny":28,"refTime":"2025-05-31T09:00:00:Z","depth":0,"parameterNumber":2,"parameterNumberName":"U-component_of_WINDS"},"data":[0,0,0,0,0,0,0,0,0,0,0,0,0,0,0,0,0,0,0,0,0,0,0,0,0,0,0,0,0,0,0,0,0,0,0,0,0,0,0,0,0,0,0,0,0,0,0,0,0,0,0,0,0,0,0,0,0,0,2.7576,2.7578,0,2.7768,2.7771,2.7773,2.7792,2.779,2.7788,2.7787,2.7983,2.799,2.7997,0,0,0,0,0,0,0,0,0,0,0,0,0,2.7224,2.7231,2.7576,2.7579,2.7581,2.7768,2.7771,2.7773,2.7793,2.779,2.7788,2.7786,2.7981,2.7989,2.7998,0,0,0,0,0,0,0,0,0,0,0,0,0,2.7393,2.7233,2.7576,2.7613,2.7618,2.7768,2.7771,2.7774,2.7793,2.779,2.7787,2.7784,2.7978,2.7989,2.7999,2.8124,0,0,2.8032,2.8036,0,0,0,0,0,0,0,0,2.7383,2.7406,2.7605,2.7611,2.7617,2.7753,2.7719,2.7891,2.7794,2.7727,2.7786,2.7783,2.7909,2.7925,2.7968,2.8133,2.8142,2.8032,2.8039,2.8043,2.8046,0,0,0,0,0,0,0,2.7372,2.7398,2.7652,2.7608,2.7615,2.762,2.764,2.7752,2.7832,2.7732,2.7734,2.7757,2.7912,2.7958,2.7973,2.8145,2.8032,2.8042,2.8048,2.8052,2.8419,2.8422,0,0,0,0,0,0,2.7353,2.7388,2.7646,2.7658,2.749,2.7629,2.7652,2.7713,2.7831,2.7846,2.7759,2.7757,2.7941,2.796,2.798,2.8132,2.8043,2.8053,2.8059,2.8416,2.842,2.8424,0,0,0,0,0,0,2.7345,2.7376,2.7638,2.7523,2.7557,2.7638,2.7706,2.7718,2.7764,2.7851,2.7866,2.7791,2.7939,2.7965,2.8087,2.8139,2.8058,2.8068,2.8412,2.8417,2.8422,2.8437,0,0,0,0,0,0,2.7335,2.7373,2.7422,2.7524,2.7563,2.7743,2.7709,2.7724,2.7782,2.7781,2.7885,2.79,2.7939,2.8071,2.8098,2.8152,2.8076,2.8408,2.8414,2.842,2.8433,2.8442,2.8451,0,0,0,0,0,2.7323,2.7419,2.7424,2.7455,2.7626,2.7746,2.7768,2.7812,2.7786,2.7835,2.7891,2.7896,2.8129,2.8084,2.8114,2.8172,2.8405,2.8412,2.842,2.8429,2.8441,2.8451,0,0,0,0,0,0,2.7321,2.7433,2.744,2.7573,2.765,2.7749,2.7813,2.7823,2.7909,2.7905,2.7955,2.7978,2.8098,2.8148,2.8095,2.8298,2.8264,2.8278,2.8261,2.8273,2.8282,2.8266,2.8085,0,0,0,0,0,2.7336,2.7425,2.7518,2.7626,2.7664,2.7732,2.7786,2.7813,2.7894,2.7927,2.7992,2.8071,2.8161,2.822,2.8309,2.844,2.8462,2.8495,2.8504,2.8511,2.8522,2.8592,2.8607,2.8448,2.8448,2.8448,0,0,2.7368,2.7441,2.7494,2.7628,2.769,2.778,2.7759,2.7856,2.7922,2.7942,2.806,2.8111,2.8202,2.8329,2.8388,2.8374,2.857,2.8521,2.8525,2.8533,2.8602,2.8616,2.863,2.8454,2.8453,2.8452,0,0,2.7472,2.7537,2.7633,2.7696,2.779,2.7834,2.7857,2.7955,2.7989,2.8109,2.8125,2.8205,2.8361,2.8424,2.8477,2.8602,2.8609,2.863,2.8676,2.8745,2.8757,2.8768,2.8811,2.8826,2.8641,2.8641,2.8641,0,2.75,2.7636,2.7681,2.7776,2.7833,2.7855,2.7951,2.801,2.8129,2.8168,2.815,2.8344,2.8408,2.8548,2.8578,2.8621,2.8648,2.8618,2.8752,2.8764,2.8775,2.8815,2.8832,2.8643,2.8642,2.8642,2.8642,0,2.7664,2.7758,2.7824,2.7937,2.8003,2.8098,2.8156,2.8217,2.8237,2.8283,2.8404,2.848,2.8583,2.8619,2.8641,2.8762,2.875,2.8742,2.8709,2.8791,2.883,2.8846,2.8645,2.8644,2.8644,2.8644,0,0,2.7773,2.7908,2.7932,2.7982,2.8087,2.816,2.8256,2.8356,2.8406,2.8487,2.8567,2.8698,2.869,2.875,2.8779,2.8839,2.893,2.8823,2.8826,2.8838,2.9066,2.9069,2.9087,2.8936,2.8939,2.8942,2.9057,0,2.7887,2.8058,2.81,2.8245,2.8331,2.8351,2.8434,2.8507,2.8552,2.8631,2.8681,2.8771,2.8756,2.8791,2.8852,2.8906,2.8976,2.8899,2.9009,2.9013,2.8983,2.9108,2.9113,2.9218,2.9073,2.9075,2.9077,0,2.8043,2.8126,2.8279,2.8371,2.8409,2.8483,2.8576,2.8652,2.8735,2.8763,2.8828,2.8851,2.895,2.8913,2.9049,2.8995,2.9043,2.9076,2.9081,2.9092,2.9048,2.9119,2.9253,2.9267,2.9102,2.91,2.9099,0,2.8103,2.8254,2.8364,2.8407,2.8518,2.8569,2.8617,2.8697,2.8753,2.8836,2.8872,2.8965,2.9016,2.9087,2.9133,2.9102,2.9264,2.9232,2.9289,2.9287,2.932,2.9317,2.9461,2.9355,2.9355,2.9354,2.9354,0,2.8225,2.8317,2.8392,2.846,2.8564,2.8611,2.8712,2.8761,2.8831,2.8908,2.8932,2.9004,2.9062,2.9141,2.9178,2.9283,2.9306,2.933,2.9339,2.9327,2.9324,2.9358,2.9351,2.9359,2.9358,2.9357,2.9356,0,2.8309,2.8364,2.8485,2.8579,2.8605,2.8677,2.8757,2.8823,2.8868,2.8964,2.899,2.906,2.9154,2.9208,2.9327,2.9351,2.9468,2.9474,2.9439,2.9443,2.9495,2.9489,2.9664,2.9689,2.9568,2.9569,2.957,0,2.8382,2.8454,2.8555,2.8608,2.8656,2.8742,2.8799,2.8848,2.8907,2.9005,2.9058,2.9154,2.9232,2.9381,2.9443,2.9533,2.954,2.9595,2.9554,2.9539,2.9538,2.9532,2.9538,2.9602,2.9603,2.9604,2.9604,0,2.8505,2.8528,2.861,2.8701,2.8768,2.8843,2.8916,2.8958,2.9019,2.9083,2.9179,2.924,2.936,2.9454,2.9549,2.9598,2.9611,2.9617,2.9635,2.9622,2.9598,2.9609,2.9456,2.9613,2.9612,2.9611,2.9611,2.961,2.8585,2.8648,2.8728,2.8818,2.8878,2.8946,2.9011,2.9064,2.9145,2.9246,2.927,2.937,2.9449,2.9577,2.9629,2.9707,2.9697,2.9723,2.9729,2.9734,2.9735,2.9587,2.9725,2.9725,2.9725,2.9725,2.9724,0,2.8707,2.8759,2.8841,2.8942,2.9012,2.9018,2.9099,2.9157,2.9245,2.9317,2.9394,2.9503,2.9593,2.9661,2.9753,2.9802,2.981,2.9825,2.982,2.9831,2.974,2.9714,2.9816,2.9816,2.9816,2.9816,2.9816,2.9816,2.8778,2.8885,2.8917,2.9052,2.9104,2.9202,2.9247,2.9309,2.9366,2.9487,2.9561,2.9605,2.9675,2.9772,2.9854,2.9872,2.9904,2.9917,2.9935,2.9848,2.9838,2.9828,2.9804,2.9924,2.9924,3.0019,3.002,3.002]},{"header":{"parameterUnit":"m.s-1","parameterCategory":1,"la1":30.2991,"la2":30.254,"lo1":-89.0895,"lo2":-89.0444,"dy":0.0017,"dx":0.0017,"nx":28,"ny":28,"refTime":"2025-05-31T09:00:00:Z","depth":0,"parameterNumber":3,"parameterNumberName":"V-component_of_WINDS"},"data":[0,0,0,0,0,0,0,0,0,0,0,0,0,0,0,0,0,0,0,0,0,0,0,0,0,0,0,0,0,0,0,0,0,0,0,0,0,0,0,0,0,0,0,0,0,0,0,0,0,0,0,0,0,0,0,0,0,0,1.4203,1.4204,0,1.4276,1.4276,1.4277,1.4265,1.4264,1.4263,1.4262,1.4333,1.4336,1.4339,0,0,0,0,0,0,0,0,0,0,0,0,0,1.4049,1.4052,1.4203,1.4204,1.4205,1.4276,1.4277,1.4278,1.4265,1.4264,1.4262,1.4261,1.4332,1.4335,1.4339,0,0,0,0,0,0,0,0,0,0,0,0,0,1.4118,1.4053,1.4203,1.4207,1.4209,1.4275,1.4277,1.4278,1.4266,1.4264,1.4262,1.426,1.4331,1.4335,1.434,1.4406,0,0,1.4354,1.4356,0,0,0,0,0,0,0,0,1.4114,1.4124,1.4206,1.4207,1.4209,1.426,1.4248,1.4321,1.4266,1.4244,1.4261,1.4259,1.431,1.4316,1.4334,1.4409,1.4412,1.4354,1.4357,1.4359,1.436,0,0,0,0,0,0,0,1.411,1.4121,1.4232,1.4207,1.4209,1.4204,1.4212,1.4262,1.4286,1.4246,1.4245,1.4254,1.431,1.4329,1.4335,1.4413,1.4354,1.4358,1.4361,1.4363,1.4544,1.4546,0,0,0,0,0,0,1.4104,1.4117,1.4229,1.4234,1.4156,1.4209,1.4217,1.4245,1.4286,1.429,1.4255,1.4253,1.4322,1.433,1.4338,1.4417,1.4359,1.4363,1.4366,1.4542,1.4545,1.4547,0,0,0,0,0,0,1.4101,1.4114,1.4226,1.4175,1.4189,1.4213,1.4244,1.4247,1.4267,1.4293,1.4297,1.4271,1.4321,1.4331,1.4389,1.4419,1.4365,1.4369,1.454,1.4543,1.4546,1.4577,0,0,0,0,0,0,1.4096,1.4113,1.414,1.4176,1.4192,1.4278,1.4246,1.425,1.4275,1.4273,1.4309,1.4313,1.432,1.4382,1.4393,1.4425,1.4373,1.4537,1.4541,1.4545,1.4573,1.4581,1.4587,0,0,0,0,0,1.4091,1.4145,1.4141,1.4155,1.4226,1.428,1.4289,1.4297,1.4277,1.4304,1.432,1.4312,1.4414,1.4388,1.4401,1.4434,1.4535,1.454,1.4544,1.457,1.4579,1.4587,0,0,0,0,0,0,1.4112,1.415,1.4146,1.4214,1.4244,1.4278,1.4311,1.4307,1.4342,1.4338,1.4346,1.4354,1.4412,1.4428,1.4399,1.4499,1.4471,1.4479,1.4487,1.4496,1.4502,1.4498,1.4377,0,0,0,0,0,1.4124,1.4166,1.4197,1.4253,1.4269,1.4287,1.4311,1.4315,1.4345,1.4358,1.4379,1.4408,1.4446,1.4471,1.4508,1.4575,1.4582,1.4604,1.461,1.4616,1.4623,1.4658,1.4668,1.4562,1.4562,1.4562,0,0,1.415,1.4177,1.4202,1.4258,1.4282,1.4323,1.4298,1.4343,1.4374,1.4364,1.442,1.4436,1.4469,1.4531,1.4559,1.4546,1.4653,1.4622,1.4626,1.463,1.4664,1.4674,1.4682,1.4565,1.4565,1.4564,0,0,1.422,1.4244,1.4294,1.4318,1.4354,1.4365,1.4377,1.4411,1.4422,1.4478,1.4471,1.4506,1.4573,1.4596,1.4617,1.4692,1.4685,1.4703,1.474,1.4774,1.4782,1.479,1.4817,1.4826,1.471,1.471,1.471,0,1.4248,1.4312,1.432,1.4366,1.439,1.4383,1.4432,1.4454,1.45,1.4516,1.4501,1.4583,1.4605,1.4672,1.469,1.4707,1.4719,1.47,1.4781,1.4788,1.4795,1.4821,1.4831,1.4712,1.4712,1.4711,1.4711,0,1.4344,1.4388,1.4424,1.4469,1.4497,1.4544,1.4558,1.4584,1.4585,1.4597,1.4653,1.4678,1.472,1.4736,1.4736,1.4802,1.4793,1.4779,1.4752,1.4807,1.4832,1.4841,1.4715,1.4714,1.4713,1.4713,0,0,1.4431,1.4479,1.4492,1.4511,1.4549,1.4583,1.4628,1.467,1.4692,1.4723,1.4761,1.4816,1.4803,1.4826,1.4829,1.4859,1.4917,1.4841,1.4842,1.4855,1.499,1.5001,1.5012,1.4911,1.4913,1.4915,1.4987,0,1.4505,1.4588,1.4595,1.4669,1.4709,1.4701,1.4741,1.4768,1.478,1.4814,1.4827,1.4866,1.4846,1.486,1.4889,1.4904,1.4944,1.4898,1.4946,1.4948,1.494,1.5025,1.5037,1.5104,1.4996,1.4998,1.4999,0,1.4602,1.4637,1.4715,1.4746,1.4763,1.4799,1.4836,1.4869,1.4898,1.4905,1.493,1.4928,1.4973,1.4943,1.5005,1.4974,1.4993,1.5003,1.5005,1.5011,1.4978,1.5033,1.5126,1.5136,1.5014,1.5013,1.5012,0,1.4658,1.4724,1.4779,1.4796,1.4833,1.4858,1.4875,1.4902,1.4926,1.4957,1.4972,1.5009,1.5029,1.5056,1.5063,1.5041,1.5125,1.5095,1.5131,1.5131,1.515,1.5149,1.5248,1.5161,1.5161,1.5161,1.516,0,1.474,1.4789,1.4804,1.4839,1.4891,1.4898,1.4949,1.4964,1.4988,1.5023,1.5017,1.505,1.5058,1.5091,1.5097,1.5147,1.5156,1.5161,1.5163,1.5163,1.5162,1.5177,1.5172,1.5163,1.5163,1.5162,1.5162,0,1.4813,1.4826,1.4885,1.4915,1.4923,1.4961,1.4986,1.5018,1.5028,1.5073,1.5083,1.51,1.5139,1.5149,1.5195,1.5199,1.5258,1.5254,1.5249,1.5249,1.5284,1.5281,1.5396,1.5411,1.5314,1.5315,1.5316,0,1.4865,1.4902,1.4936,1.496,1.4977,1.5016,1.504,1.5046,1.5071,1.5105,1.5133,1.5171,1.5203,1.5266,1.5281,1.5316,1.5313,1.5351,1.5318,1.5317,1.5314,1.5312,1.5316,1.5358,1.5359,1.536,1.536,0,1.4957,1.496,1.4996,1.5034,1.5063,1.5092,1.512,1.5139,1.5149,1.5177,1.5217,1.5242,1.5289,1.5327,1.5362,1.5377,1.537,1.537,1.538,1.5381,1.5377,1.538,1.5267,1.5368,1.5367,1.5367,1.5366,1.5366,1.5021,1.5053,1.5082,1.5121,1.5142,1.5168,1.5199,1.5213,1.5248,1.5288,1.5288,1.5332,1.5358,1.5404,1.5421,1.5454,1.5442,1.5457,1.5461,1.5464,1.5468,1.5371,1.546,1.546,1.546,1.546,1.5459,0,1.5112,1.513,1.5166,1.5205,1.5236,1.5226,1.5256,1.5282,1.5321,1.5346,1.5377,1.5422,1.5459,1.5476,1.5511,1.5534,1.5532,1.5544,1.5542,1.5546,1.5476,1.5464,1.5545,1.5545,1.5545,1.5545,1.5545,1.5545,1.5164,1.5217,1.5224,1.5287,1.5304,1.5348,1.5366,1.5389,1.5409,1.546,1.5491,1.5501,1.5523,1.5559,1.5591,1.5595,1.5609,1.5622,1.5624,1.5559,1.5551,1.5543,1.5531,1.5625,1.5625,1.5691,1.5692,1.5692]}]]